STARLINK-36592

Last updated on Mon Mar 30 2026 00:02:05 GMT+0000 (Coordinated Universal Time)

1 68007U 26039X 26088.16668981 .00019392 00000+0 69474-3 0 9996 2 68007 42.9994 299.0323 0001938 262.2763 0.9770 15.28401571 6000
UTC large
Height (km)
Speed (km/s)
/
Latitude / Longitude
Inclination (degrees)
Orbital Period (minutes)
Azimuth
Elevation
Range (km)
Doppler Factor

Next 0 passes for location: London (51.5072 / 0.1276)

Sorry there are no passes over London.